Tracking 28052 objects as of 21-Sep-2023
HD Live streaming from Space Station
objects crossing your sky now

STORK-5 (MARTA)

Track STORK-5 (MARTA) now!
10-day predictions


NORAD ID: 48872
Int'l Code: 2021-058B
Perigee: 352.2 km
Apogee: 360.8 km
Inclination: 60.7 °
Period: 91.5 minutes
Semi major axis: 6727 km
RCS: Unknown
Launch date: June 30, 2021
Source: POLAND (POL)
Launch site: Pegasus launched from Western Range Air Space (WRAS)
Your satellite tracking list
Your tracking list is empty




NASA's NSSDC Master Catalog

Two Line Element Set (TLE):
1 48872U 21058B   23264.33725703  .00291834  00000-0  20142-2 0  9990
2 48872  60.6738  17.8393 0006354  56.5145 303.6573 15.73345385124453
Source of the keplerian elements: AFSPC